TimeEDT,TemperatureF,Dew PointF,Humidity,Sea Level PressureIn,VisibilityMPH,Wind Direction,Wind SpeedMPH,Gust SpeedMPH,PrecipitationIn,Events,Conditions,WindDirDegrees,DateUTC
12:53 AM,62.1,54.0,75,29.74,10.0,WNW,10.4,-,N/A,,Scattered Clouds,300,2013-07-24 04:53:00
1:53 AM,61.0,55.0,81,29.75,10.0,WNW,11.5,-,N/A,,Scattered Clouds,300,2013-07-24 05:53:00
2:05 AM,60.8,55.4,82,29.76,10.0,WNW,11.5,-,N/A,,Mostly Cloudy,290,2013-07-24 06:05:00
2:53 AM,62.1,55.0,78,29.77,10.0,WNW,12.7,-,N/A,,Overcast,290,2013-07-24 06:53:00
3:03 AM,62.6,53.6,72,29.78,10.0,NW,12.7,21.9,N/A,,Overcast,310,2013-07-24 07:03:00
3:53 AM,61.0,53.1,75,29.79,10.0,NW,13.8,-,N/A,,Overcast,320,2013-07-24 07:53:00
4:53 AM,60.1,48.9,67,29.81,10.0,NW,16.1,21.9,N/A,,Overcast,310,2013-07-24 08:53:00
5:53 AM,59.0,48.0,67,29.83,10.0,North,11.5,20.7,N/A,,Overcast,350,2013-07-24 09:53:00
6:53 AM,57.9,46.9,67,29.85,10.0,NNW,13.8,-,N/A,,Overcast,330,2013-07-24 10:53:00
7:00 AM,57.2,46.4,67,29.86,10.0,NNW,10.4,-,N/A,,Mostly Cloudy,340,2013-07-24 11:00:00
7:53 AM,57.9,46.9,67,29.88,10.0,NNW,9.2,-,N/A,,Mostly Cloudy,340,2013-07-24 11:53:00
8:53 AM,57.9,46.9,67,29.90,10.0,North,13.8,20.7,N/A,,Mostly Cloudy,350,2013-07-24 12:53:00
9:53 AM,61.0,48.9,64,29.93,10.0,North,11.5,-,N/A,,Mostly Cloudy,10,2013-07-24 13:53:00
10:02 AM,60.8,48.2,63,29.93,10.0,North,13.8,20.7,N/A,,Mostly Cloudy,360,2013-07-24 14:02:00
10:53 AM,60.1,46.9,62,29.95,10.0,NNW,13.8,-,N/A,,Mostly Cloudy,330,2013-07-24 14:53:00
11:53 AM,62.1,46.9,58,29.97,10.0,NNW,11.5,18.4,N/A,,Mostly Cloudy,330,2013-07-24 15:53:00
12:53 PM,62.1,46.9,58,29.98,10.0,North,11.5,-,N/A,,Mostly Cloudy,350,2013-07-24 16:53:00
1:53 PM,64.9,46.0,50,29.98,10.0,NNE,4.6,-,N/A,,Scattered Clouds,30,2013-07-24 17:53:00
2:53 PM,64.9,46.0,50,29.99,10.0,NNW,9.2,-,N/A,,Scattered Clouds,340,2013-07-24 18:53:00
3:53 PM,66.0,46.9,50,29.99,10.0,NNE,11.5,17.3,N/A,,Partly Cloudy,20,2013-07-24 19:53:00
4:53 PM,66.9,46.0,47,29.99,10.0,North,10.4,-,N/A,,Scattered Clouds,10,2013-07-24 20:53:00
5:53 PM,68.0,46.9,47,29.99,10.0,NNE,8.1,-,N/A,,Scattered Clouds,20,2013-07-24 21:53:00
6:53 PM,66.9,46.0,47,29.99,10.0,North,5.8,-,N/A,,Scattered Clouds,360,2013-07-24 22:53:00
7:53 PM,66.9,46.9,49,30.00,10.0,Calm,Calm,-,N/A,,Scattered Clouds,0,2013-07-24 23:53:00
8:53 PM,64.0,48.0,56,30.01,10.0,North,3.5,-,N/A,,Partly Cloudy,360,2013-07-25 00:53:00
9:53 PM,60.1,52.0,75,30.02,10.0,Calm,Calm,-,N/A,,Partly Cloudy,0,2013-07-25 01:53:00
10:53 PM,57.9,52.0,81,30.04,10.0,Calm,Calm,-,N/A,,Partly Cloudy,0,2013-07-25 02:53:00
11:53 PM,55.9,51.1,84,30.05,10.0,Calm,Calm,-,N/A,,Clear,0,2013-07-25 03:53:00